Wind_Speed
17 17 16 15 15 15 15 15 14 14 14 14 14 15 16 16 15 16 16 17 17 17 18 18 18 18 18 18 19 20 20 20 20 20 20 20 21 22 21 21 21 22 22
18 18 17 17 16 16 15 15 16 15 15 15 15 16 16 17 17 17 18 18 19 19 20 21 21 21 21 21 21 21 21 22 22 22 22 22 22 22 22 23 23 23 24
18 18 17 17 17 16 16 16 17 18 17 17 16 17 16 17 17 18 19 19 20 21 21 22 22 22 22 22 22 23 22 23 23 23 23 23 23 24 24 24 25 25 25
18 17 17 17 17 17 17 17 18 18 18 18 17 17 17 18 19 20 20 20 20 21 21 21 22 22 22 22 23 23 23 24 24 24 24 24 25 25 25 25 26 26 27
18 18 18 17 17 18 17 19 19 18 18 18 18 18 18 19 20 21 20 20 21 21 21 21 21 21 22 23 23 23 23 23 24 24 25 25 25 25 25 26 27 27 27
18 19 18 18 18 19 19 20 19 19 19 19 19 19 19 20 21 21 21 21 21 20 20 20 20 21 22 22 23 23 23 24 24 24 24 25 25 25 26 27 28 28 29
18 19 19 18 19 19 19 19 20 19 19 19 20 20 20 20 21 21 21 20 20 19 19 19 20 21 22 22 22 23 23 24 24 24 24 25 25 26 27 27 28 29 30
18 19 19 19 19 20 20 20 20 20 20 20 21 21 20 21 20 20 20 20 19 18 19 18 18 19 19 20 21 22 22 23 23 23 24 25 25 26 27 27 28 28 28
18 18 19 19 20 21 20 19 20 20 20 21 21 21 20 20 21 20 19 19 19 20 19 19 19 19 19 19 19 20 21 22 22 23 24 25 26 26 27 27 29 29 29
18 18 19 19 20 20 20 20 20 21 21 21 21 21 21 21 21 20 19 19 19 20 19 20 19 19 19 20 19 20 20 21 22 23 25 26 27 27 28 28 29 30 30
18 18 19 19 20 19 20 20 20 21 21 21 21 22 22 21 21 21 19 19 19 19 19 19 19 18 19 19 20 20 20 22 23 24 25 27 28 29 29 30 30 30 30
17 18 18 18 18 19 19 19 20 21 21 22 21 22 22 22 21 21 20 20 20 19 18 19 19 19 20 20 21 21 22 22 23 25 26 27 28 29 29 30 30 30 30
17 17 17 17 18 18 19 19 20 20 20 22 22 22 22 21 21 21 22 21 21 20 19 19 20 20 20 20 21 21 21 22 23 24 25 26 26 27 28 29 30 30 31
17 18 19 19 19 19 20 20 21 21 21 21 22 22 22 21 21 22 22 21 21 21 20 20 20 20 21 21 21 21 22 22 22 23 24 25 25 27 28 27 28 29 30
18 18 19 19 19 20 20 21 21 21 21 22 22 22 21 21 22 22 22 22 22 21 21 21 21 21 22 22 21 22 22 21 22 23 24 25 25 25 26 26 26 28 28
19 20 19 19 19 20 21 21 21 21 22 22 22 22 22 22 23 23 23 23 22 21 21 21 21 21 22 21 20 21 21 21 22 23 24 24 24 25 25 25 26 27 27
20 21 20 20 21 22 22 22 21 22 22 23 23 23 24 24 24 24 24 23 22 21 21 22 21 21 21 19 20 21 21 21 21 22 23 24 24 25 24 25 25 26 26
21 21 21 21 22 22 22 21 21 22 22 23 22 22 23 23 23 23 22 22 21 21 21 21 21 20 20 19 20 21 21 21 22 22 24 24 25 25 24 24 24 25 26
21 20 20 21 21 21 21 21 21 21 22 22 22 22 22 22 22 22 21 21 21 20 20 21 20 20 20 20 20 21 22 22 23 23 24 25 25 26 25 25 25 26 27
19 18 19 20 20 21 21 21 22 21 21 21 21 21 21 21 21 22 21 21 20 19 19 19 20 20 19 19 20 20 21 22 23 24 25 25 26 26 25 26 26 27 28
18 18 19 19 20 20 21 21 21 21 21 21 21 20 20 20 21 20 20 20 20 19 19 19 20 19 18 19 20 21 22 22 23 24 25 25 25 25 25 26 26 27 28
18 18 19 19 20 20 20 20 20 19 20 20 20 19 20 20 20 19 20 19 19 19 20 20 20 20 20 20 21 22 22 23 23 24 25 26 26 26 25 26 27 28 29
19 19 20 20 20 20 20 19 19 19 19 19 19 20 20 20 19 19 19 19 19 20 20 20 21 22 22 22 22 22 23 23 24 24 25 25 25 26 26 27 27 27 28
19 19 20 19 19 19 19 19 19 19 19 20 20 19 19 19 20 19 19 19 20 21 21 21 21 23 24 24 23 24 24 24 24 24 25 25 25 25 25 26 26 28 29
19 19 19 19 19 19 19 19 19 19 19 19 19 19 20 20 20 20 19 19 20 20 21 21 21 23 24 24 24 25 25 24 24 24 25 25 25 25 25 26 26 27 27
21 20 20 19 19 19 19 18 18 19 18 18 18 17 18 19 19 20 20 20 21 21 22 22 22 23 24 24 25 26 26 26 25 25 25 25 25 26 25 25 25 24 24
Wind_Direction
267 265 267 269 272 275 276 275 277 276 276 278 281 283 281 281 280 282 280 276 274 273 273 273 273 274 271 270 269 270 270 267 265 262 259 258 255 253 253 253 253 252 253
267 266 265 269 272 273 275 276 276 278 278 278 281 284 285 284 282 280 281 277 275 274 274 274 273 272 271 271 270 270 270 269 265 263 260 258 258 257 255 255 254 254 253
265 266 268 270 272 273 275 274 276 279 280 281 283 286 287 285 285 284 283 280 278 276 275 274 272 270 269 270 270 270 270 269 267 265 262 259 259 259 258 258 256 255 256
263 267 269 271 271 272 274 273 277 280 280 282 284 286 287 285 285 287 285 282 281 280 276 275 272 269 269 269 270 270 270 269 267 266 263 260 259 259 259 258 257 258 257
264 267 269 272 271 273 275 276 278 280 279 280 284 286 288 287 286 289 287 285 282 281 279 277 275 271 269 269 268 270 271 270 266 264 262 261 260 261 261 259 258 258 259
265 267 270 272 273 275 277 278 278 278 278 280 283 285 288 289 289 289 287 285 284 283 281 279 277 273 272 271 270 271 270 269 267 264 263 263 262 261 261 260 260 258 259
268 268 270 273 277 278 278 274 274 276 277 280 282 285 288 291 291 289 290 286 283 282 282 282 281 277 275 273 271 270 269 267 267 266 264 263 263 263 263 263 262 259 258
270 270 270 271 275 276 278 276 276 278 278 279 282 285 289 291 293 290 288 287 284 284 285 284 284 282 279 275 272 270 268 267 266 266 264 263 264 265 266 266 265 262 259
272 273 273 273 274 275 277 279 279 278 280 281 282 286 291 291 291 288 286 287 285 284 283 284 285 284 282 279 274 271 270 268 267 267 267 267 266 267 267 267 266 266 263
273 275 275 276 276 277 277 279 282 280 280 282 283 286 289 289 289 287 285 285 284 283 283 285 285 284 282 281 275 272 271 270 270 270 270 271 269 269 268 268 266 266 264
272 275 277 277 276 277 278 278 280 282 282 283 284 285 288 289 288 286 287 287 286 287 287 285 286 285 284 282 278 274 271 270 272 273 273 274 272 271 270 269 267 266 264
276 279 280 280 278 278 278 280 281 281 284 286 285 286 286 286 287 287 289 289 287 286 286 287 287 286 286 283 279 276 275 275 276 276 276 276 276 274 272 270 268 265 263
279 282 283 283 283 281 279 279 280 283 286 286 286 285 286 287 288 289 292 291 286 284 286 287 287 288 287 285 282 278 278 279 279 280 280 280 279 277 276 273 269 266 263
279 282 282 283 284 284 282 282 281 283 285 287 286 286 284 285 287 287 289 290 287 284 284 286 285 287 288 287 284 281 280 280 279 280 280 282 282 280 278 275 271 267 263
281 284 285 282 283 285 285 284 284 284 286 286 285 283 284 285 287 286 286 288 289 285 284 287 287 287 287 287 286 283 282 282 280 281 281 283 284 283 281 278 274 269 265
283 285 281 281 281 282 284 285 285 283 285 285 284 282 282 283 285 286 288 289 288 287 285 290 289 288 289 288 286 284 283 283 282 283 284 285 284 284 284 280 275 270 265
284 283 280 281 281 282 284 283 283 283 284 284 282 280 281 283 286 286 287 288 288 287 288 290 291 289 288 289 289 287 285 284 285 286 287 287 286 285 285 283 277 271 268
287 284 284 285 284 284 283 283 282 283 284 283 281 281 280 283 285 286 288 288 288 289 290 290 289 289 291 292 291 290 287 287 287 288 288 288 286 285 283 283 279 275 272
286 286 285 287 285 283 282 282 282 284 284 283 282 281 281 282 284 288 289 289 289 290 291 291 290 289 291 293 293 292 290 289 289 289 290 291 288 286 283 281 280 278 276
287 288 288 288 287 286 283 282 282 282 283 284 283 281 281 282 284 286 288 289 290 291 293 293 293 292 293 296 295 293 293 291 289 289 290 291 290 289 286 283 281 279 278
288 289 289 289 288 288 287 285 283 283 283 283 282 281 282 284 286 284 284 287 289 290 292 295 293 293 295 297 296 296 296 295 294 294 293 293 293 294 291 286 284 282 281
288 289 289 290 289 288 288 289 287 285 285 285 284 284 284 286 286 285 284 285 286 288 290 293 292 294 297 297 297 297 296 296 295 295 297 297 295 294 291 288 285 284 284
288 289 289 290 289 289 290 289 287 286 285 285 285 284 284 287 288 287 286 286 286 287 290 293 294 295 296 296 297 297 298 299 298 298 299 298 297 296 293 290 287 285 285
288 288 289 289 289 290 290 287 286 287 286 284 283 281 283 285 284 285 287 286 284 285 288 291 294 295 295 296 297 297 298 299 300 301 301 301 299 297 296 294 291 287 286
287 287 287 288 289 291 292 289 286 287 286 285 283 282 283 282 284 285 287 287 287 286 286 288 290 293 294 295 297 298 298 299 301 303 305 304 301 299 298 296 294 292 289
287 285 286 288 288 289 290 288 287 287 286 286 285 285 284 285 287 288 290 291 291 291 290 291 293 295 295 296 297 297 297 297 299 301 304 305 303 301 301 299 297 294 291
Height
5856 5856 5857 5857 5858 5858 5858 5858 5858 5859 5859 5859 5859 5859 5858 5858 5858 5858 5857 5857 5857 5857 5857 5857 5857 5858 5858 5859 5859 5859 5860 5860 5861 5861 5862 5863 5864 5865 5866 5867 5869 5870 5872
5852 5853 5853 5854 5854 5854 5855 5855 5855 5855 5855 5856 5856 5855 5855 5854 5854 5853 5853 5853 5853 5853 5852 5852 5853 5853 5853 5854 5854 5854 5854 5855 5855 5856 5857 5858 5859 5860 5861 5862 5864 5865 5866
5848 5849 5850 5850 5851 5851 5851 5851 5851 5852 5852 5852 5852 5851 5851 5850 5849 5849 5849 5848 5848 5847 5847 5847 5847 5847 5848 5848 5848 5848 5848 5849 5849 5850 5851 5852 5853 5855 5856 5857 5858 5859 5860
5845 5846 5846 5847 5847 5847 5847 5847 5848 5848 5848 5848 5848 5847 5847 5846 5845 5844 5843 5843 5842 5842 5841 5841 5841 5841 5841 5842 5842 5842 5843 5843 5843 5844 5845 5846 5847 5849 5850 5851 5852 5853 5854
5841 5842 5843 5843 5843 5843 5843 5843 5844 5844 5844 5844 5843 5843 5843 5842 5840 5839 5838 5837 5837 5836 5835 5835 5835 5835 5835 5836 5836 5836 5836 5837 5837 5838 5839 5840 5841 5842 5843 5844 5845 5846 5848
5837 5838 5839 5839 5839 5839 5839 5838 5839 5839 5840 5839 5839 5838 5838 5837 5835 5834 5833 5832 5831 5830 5830 5829 5829 5829 5829 5829 5830 5830 5830 5831 5831 5831 5832 5833 5834 5835 5836 5837 5838 5839 5840
5833 5834 5834 5835 5835 5835 5834 5833 5834 5835 5835 5835 5834 5834 5833 5832 5830 5829 5828 5827 5826 5825 5824 5824 5824 5823 5823 5823 5823 5823 5824 5824 5825 5825 5826 5827 5828 5829 5830 5830 5831 5832 5833
5829 5829 5830 5831 5831 5831 5830 5830 5830 5830 5829 5830 5829 5828 5828 5827 5825 5824 5823 5822 5821 5820 5820 5819 5818 5818 5818 5818 5817 5817 5818 5818 5819 5819 5819 5820 5821 5822 5822 5823 5823 5824 5825
5825 5825 5826 5826 5826 5826 5826 5826 5826 5825 5825 5825 5824 5823 5822 5822 5821 5820 5818 5817 5816 5815 5815 5814 5814 5813 5812 5812 5812 5812 5812 5812 5812 5813 5813 5814 5814 5815 5815 5815 5816 5816 5817
5822 5822 5822 5822 5822 5822 5822 5822 5821 5821 5821 5820 5819 5818 5818 5817 5816 5815 5814 5813 5812 5811 5810 5809 5809 5808 5807 5807 5806 5806 5806 5806 5806 5806 5806 5806 5807 5807 5807 5807 5808 5808 5809
5818 5818 5818 5818 5818 5817 5817 5817 5817 5816 5816 5815 5814 5813 5812 5811 5810 5810 5809 5808 5807 5806 5805 5804 5803 5803 5802 5801 5801 5800 5800 5800 5800 5800 5799 5799 5799 5799 5799 5799 5799 5799 5800
5814 5814 5814 5813 5813 5813 5813 5813 5812 5811 5811 5810 5809 5808 5807 5806 5805 5804 5804 5803 5802 5801 5800 5800 5799 5798 5797 5796 5795 5795 5794 5794 5794 5793 5792 5791 5791 5790 5790 5790 5790 5790 5790
5810 5810 5809 5809 5808 5808 5808 5807 5807 5806 5805 5805 5804 5803 5802 5801 5800 5800 5799 5798 5797 5797 5796 5795 5794 5792 5791 5790 5789 5789 5788 5787 5787 5786 5785 5784 5783 5782 5781 5780 5780 5780 5781
5806 5806 5805 5804 5804 5803 5803 5802 5802 5801 5800 5800 5798 5797 5797 5796 5795 5795 5794 5793 5792 5791 5790 5790 5788 5787 5786 5785 5784 5783 5782 5781 5780 5779 5777 5776 5775 5773 5772 5771 5771 5771 5771
5801 5801 5800 5800 5799 5799 5798 5797 5797 5796 5795 5794 5793 5792 5791 5791 5790 5789 5788 5787 5786 5785 5785 5784 5783 5781 5780 5779 5777 5777 5776 5774 5773 5772 5770 5769 5767 5766 5764 5763 5762 5762 5762
5796 5796 5795 5795 5794 5794 5793 5792 5791 5791 5790 5789 5787 5786 5786 5785 5785 5784 5783 5782 5780 5779 5779 5778 5777 5775 5774 5773 5772 5770 5769 5767 5766 5765 5763 5762 5760 5758 5757 5755 5754 5754 5754
5791 5791 5790 5789 5789 5788 5787 5787 5786 5785 5784 5783 5782 5781 5780 5780 5779 5778 5777 5776 5775 5774 5773 5772 5771 5770 5768 5767 5766 5764 5763 5761 5760 5758 5757 5755 5753 5751 5750 5748 5746 5746 5746
5786 5785 5784 5783 5783 5782 5781 5781 5780 5779 5778 5777 5776 5775 5774 5774 5773 5772 5771 5770 5769 5768 5767 5766 5765 5764 5762 5761 5760 5758 5756 5755 5753 5752 5750 5748 5746 5744 5743 5741 5740 5739 5738
5781 5780 5779 5778 5777 5776 5776 5775 5774 5773 5772 5771 5770 5769 5769 5768 5767 5766 5765 5764 5763 5762 5761 5760 5759 5758 5757 5755 5754 5752 5750 5748 5747 5745 5743 5741 5738 5736 5735 5734 5732 5731 5730
5775 5774 5773 5772 5771 5770 5769 5769 5768 5767 5766 5765 5764 5763 5763 5762 5761 5760 5759 5759 5758 5757 5756 5754 5753 5752 5751 5749 5748 5746 5744 5742 5739 5737 5735 5733 5731 5729 5727 5726 5724 5723 5722
5770 5769 5768 5767 5766 5764 5764 5763 5762 5761 5760 5759 5759 5758 5757 5757 5755 5754 5754 5753 5752 5751 5750 5749 5748 5747 5745 5743 5742 5740 5738 5735 5733 5730 5728 5727 5724 5722 5719 5717 5715 5714 5713
5765 5764 5763 5761 5760 5759 5758 5757 5756 5755 5755 5754 5753 5752 5752 5751 5750 5749 5748 5747 5747 5746 5745 5744 5742 5741 5739 5737 5736 5734 5731 5729 5727 5724 5721 5719 5716 5714 5712 5709 5707 5706 5704
5760 5759 5757 5756 5755 5754 5752 5751 5750 5750 5749 5749 5748 5747 5746 5745 5745 5744 5742 5742 5741 5740 5739 5738 5736 5734 5733 5731 5729 5727 5725 5722 5720 5717 5714 5712 5709 5706 5703 5701 5698 5696 5694
5755 5754 5752 5751 5750 5748 5747 5746 5745 5744 5744 5743 5742 5742 5741 5740 5739 5738 5737 5736 5735 5734 5732 5731 5730 5728 5726 5724 5722 5720 5718 5716 5713 5710 5707 5705 5702 5699 5695 5692 5689 5687 5685
5749 5748 5747 5746 5745 5743 5742 5741 5740 5739 5738 5737 5737 5736 5735 5734 5734 5733 5732 5731 5729 5727 5726 5725 5723 5721 5719 5717 5715 5713 5711 5709 5707 5704 5700 5697 5694 5691 5688 5685 5681 5678 5675
5744 5743 5742 5741 5740 5738 5737 5735 5734 5734 5733 5732 5732 5731 5730 5729 5728 5727 5726 5724 5723 5721 5720 5718 5717 5715 5712 5710 5708 5706 5704 5702 5699 5697 5693 5690 5687 5683 5681 5677 5673 5670 5667